sat.trackr.live / text

‹ back to catalog

DISCO-2

NORAD 68431 · 2026-067R

PAYLOAD ACTIVE UNKNOWN

§ Identity

Operator
Country
DEN
Launch date
2026-03-30
Launch site
AFWTR
Launch vehicle
Mass (kg)
RCS (m²)

External: N2YO · Heavens-Above · Gunter

§ Orbital elements

Epoch: 2026-09-20T03:06:08.564256Z

Period
94.72 min
Inclination
97.4705°
Eccentricity
0.0003540
Mean motion
15.20325406 rev/d
Perigee alt
502.4 km
Apogee alt
507.3 km
Semi-major
6,883.0 km
B*
2.5073e-4
RAAN
220.6697°
Arg perigee
55.4398°
Mean anomaly
304.7170°
Rev number
2,636

§ Raw data

DISCO-21 68431U 26067R   26263.12926579  .00005383  00000+0  25073-3 0  99912 68431  97.4705 220.6697 0003540  55.4398 304.7170 15.20325406 26361

JSON: /api/v1/satellites/68431 · /tle

For live sub-satellite position, see the globe view (requires WebGL).

§ Visibility from observer

Set your observer location to see the next 7 days of passes ≥ 10°. The values pass through the URL so the page stays shareable.

No JS? Fill the form by hand. The geolocation button needs JavaScript.